Terug naar catalogus

STARLINK-34846

ActiefCommunicatieVLEO
NORAD 66972·PAYLOAD·🇺🇸 United States

Gelanceerd Dec 8, 2025 vanaf Cape Canaveral Space Force Station

Loading…

Volgende Passages (komende 24 uur)

TLE

VersSource: CelesTrak SupGP

Epoch: Sep 15, 2026, 02:44 UTC

1 66972C 25288P   26258.11437500 -.00019106  00000+0 -69192-3 0  2585
2 66972  43.0023  33.5212 0001555 271.2030 292.8900 15.27592100    14

Volg STARLINK-34846 in realtime met AllMySat

Download on the App Store